ARIANE 44LP DEB, 25540

Orbit data source: Space-Track

ARIANE 44LP DEB, 25540 is space debris in HEO originally from a launch on Sun, 11 Dec 1988 UTC launched from the French Guiana (FRGUI). Debris objects in space refer to the collection of defunct objects orbiting the Earth. Examples of debris include non-operational satellites, rocket bodies, and fragments generated from explosions, collisions, or faulty payload assembly.

Loading next visibility...
Identifier
25540, 1988-109G
Orbit
HEO
Country
Flag of FRFR
Related business
Manufacturer
Unknown
Mission
Spacecraft
Bus & Motor
Unknown
Mass
Unknown
Launch date (UTC)
1988-12-11 (37 years ago)
Launch vehicle
Unknown
Launch site
French Guiana (FRGUI)
Object type
Payload
Rocket body
Debris
Shape & HBR
Unknown shape, 1.1 m
Radar Cross Section
Medium (>0.1 m² and <1 m²)

Expand to show TLE details & history
Last TLE update: 20 hours ago

TLE from 20 hours ago
0 ARIANE 44LP DEB
1 25540U 88109G   25310.26290516  .00003925  00000-0  39852-2 0  9992
2 25540   6.8604  63.4883 6580307  37.0552 353.7721  3.13680225268212
Epoch: 2025-11-06T06:18Z
TLE epoch observation values (Epoch: 2025-11-06T06:18:35.005Z)
Latitude
-0.00004°
Longitude
-77.026°
Altitude
957.965 km
Speed
9.404 km/s
True Right ascension
04h 13m 22s
True Declination
0° 00' 00"
Sunlit
Object was in full shadow at epoch
Visualization orbit readout
Latitude
Unknown
Longitude
Unknown
Altitude
Unknown
Speed
Unknown
Apparent Right ascension
Unknown
Apparent Declination
Unknown
Sunlit
N/A
Visualization observer readout
Local Sidereal Time
21:56:56
Azimuth
Unknown
Elevation
Unknown
Doppler factor
Unknown
Orbital elements
Apogee altitude
26,314.459 km
Perigee altitude
364.72 km
Semi-major axis
19,717.727 km
Eccentricity
0.65803
Inclination
6.8604°
RAAN
63.4883°
Arg. of periapsis
37.0552°
True anomaly
322.20253°
Mean anomaly
353.7721°
Eccentric anomaly
342.32501°
Mean motion
0.7839 °/min
Orbital period
459.25 mins
BSTAR
0.0039852
Loading maneuver chart data...
Computing Atmospheric mass density...
Loading historical data...
Loading historical data...
Loading historical data...
Loading historical data...
Loading historical data...
Loading historical data...
Loading historical data...

Documentation

Showing up to 5 results
|